Location: T�bingen+AIT
(48.5342°N, 9.0700°E)
Time: 20:26:35
(UTC+02:00)

Cosmos 2369 Rocket - Pass Details

Date: 14 September 2017
Orbit: 828 x 853 km, 71.0° (Epoch: 20 September)

Event Time Altitude Azimuth Distance (km) Brightness Sun altitude
Rises 20:35:36 0° 332° (NNW) 3,422 6.1 -10.1°
Reaches altitude 10° 20:38:05 10° 333° (NNW) 2,479 5.3 -10.5°
Maximum altitude 20:43:47 81° 62° (ENE) 858 2.2 -11.4°
Drops below altitude 10° 20:49:25 10° 150° (SSE) 2,445 4.2 -12.3°
Enters shadow 20:49:51 - 150° (SSE) 2,610 4.3 -12.4°
